705  
NZUS99 KDVN 241110  
HRRRRR  
HOURLY WEATHER ROUNDUP  
NATIONAL WEATHER SERVICE QUAD CITIES IA IL  
600 AM CDT FRI MAY 24 2019  
 
NOTE: "FAIR" INDICATES FEW OR NO CLOUDS BELOW 12,000 FEET WITH  
NO SIGNIFICANT WEATHER AND/OR OBSTRUCTIONS TO VISIBILITY.  
------------------------------------------------------------------  
 
CITY SKY/WX TMP DP RH WIND PRES REMARKS  
BURLINGTON CLOUDY 61 56 83 NE10 30.04R  
CEDAR RAPIDS LGT RAIN 55 55 100 E17G26 30.00F  
DAVENPORT LGT RAIN 57 54 89 NE15 30.13R  
DUBUQUE LGT RAIN 54 52 93 E18G25 30.04F  
IOWA CITY LGT RAIN 57 55 93 E7G20 30.04F  
MOLINE CLOUDY 60 56 86 N8 30.11R  
------------------------------------------------------------------  
THE STATIONS BELOW ARE NOT NWS STATIONS AND ARE NOT SUBJECT TO NWS  
QUALITY CONTROL. SOME STATIONS DO NOT REPORT WEATHER SUCH AS FOG.  
* - STATIONS THAT REPORT TMP AND DP IN WHOLE DEGREES CELSIUS, WHICH  
ARE THEN CONVERTED TO FAHRENHEIT.  
------------------------------------------------------------------  
 
CITY SKY/WX TMP DP RH WIND PRES REMARKS  
CLINTON LGT RAIN 56 54 93 E12 30.13R  
FAIRFIELD * CLOUDY 59 55 88 E22G29 29.99F  
FORT MADISON * MOCLDY 63 59 88 N8 30.06R  
FREEPORT RAIN 53 53 100 E6 30.18R  
INDEPENDENCE * MOCLDY 55 54 97 E16 29.99F  
KEOKUK * PTCLDY 63 59 88 NE6 30.01S  
MACOMB MOCLDY 61 58 91 NE5 30.06S  
MONTICELLO * MOCLDY 55 55 100 SE20G25 30.01F  
MT PLEASANT MOCLDY 59 57 94 E17G23 30.03F  
MUSCATINE * CLOUDY 59 55 88 E15 30.05F  
SAVANNA TSTM 55 54 94 N6 30.14R  
STERLING/R.F. MOCLDY 57 55 93 NE9 30.12S  
VINTON * RAIN 56 56 100 E13 30.01F  
WASHINGTON * CLOUDY 57 57 100 E23G31 30.00F  
------------------------------------------------------------------  
 
 
CLICK HERE TO GO TO PREVIOUS BULLETINS.

The Nexlab IL Page
The Nexlab IA Page
The Nexlab MO Page Main Text Page